Location: Newark
(7.0858°N, 171.3717°E)
Time: 08:32:43
(UTC+00:00)

S-56A Canister/Altair - Pass Details

Date: 02 December 2020
Orbit: 633 x 2499 km, 38.9° (Epoch: 27 January)

Event Time Altitude Azimuth Distance (km) Brightness Sun altitude
Rises 05:37:04 0° 249° (WSW) 6,161 14.7 8.1°
Reaches altitude 10° 05:41:30 10° 256° (WSW) 5,158 14.2 7.1°
Maximum altitude 05:55:06 41° 321° (NW) 2,982 10.8 4.0°
Drops below altitude 10° 06:06:06 10° 28° (NNE) 4,174 10.8 1.5°
Sets 06:09:19 0° 36° (NE) 4,920 11.1 0.7°
